Regional Weather Roundup
Issued by NWS Little Rock, AR

Home | Current Version | Previous Version | Graphics & Text | Print | Product List | Glossary On
Versions: 1 2 3 4 5 6 7 8 9 10 11 12 13 14 15 16 17 18 19 20 21 22 23 24 25 26 27 28 29 30 31 32 33 34 35 36 37 38 39 40 41 42 43 44 45 46 47 48 49 50
000
ASUS44 KLZK 301005
RWRLZK

WEATHER ROUNDUP FOR ARKANSAS
NATIONAL WEATHER SERVICE LITTLE ROCK AR
500 AM CDT WED JUL 30 2014

NOTE: "FAIR" INDICATES FEW OR NO CLOUDS BELOW 12,000 FEET WITH NO
SIGNIFICANT WEATHER AND/OR OBSTRUCTIONS TO VISIBILITY.

ARZ001-003-010-029-301100-
NORTHWEST ARKANSAS

CITY           SKY/WX    TMP DP  RH WIND       PRES   REMARKS
FAYETTEVILLE   CLOUDY    64  62  93 CALM      30.09S
FORT SMITH     CLOUDY    73  67  81 E5        30.06R
HARRISON       CLOUDY    66  63  90 CALM      30.09S
BENTONVILLE    CLOUDY    70  63  78 CALM      30.10S
ROGERS         CLOUDY    69  65  86 SE3       30.10S
SILOAM SPGS    MOCLDY    66  57  72 E3        30.09S
HIGHFILL       CLOUDY    66  63  90 CALM      30.09R
$$

ARZ004-005-016-301100-
NORTH CENTRAL ARKANSAS

CITY           SKY/WX    TMP DP  RH WIND       PRES   REMARKS
BATESVILLE     CLOUDY    66  57  72 S3        30.10S
FLIPPIN        PTCLDY    64  61  88 S3        30.09S
MTN HOME       CLEAR     63  60  90 S3        30.08S
$$

ARZ040-041-301100-
WEST CENTRAL ARKANSAS

CITY           SKY/WX    TMP DP  RH WIND       PRES   REMARKS
MENA           CLOUDY    70  68  94 CALM      30.12R
MOUNT IDA      CLOUDY    68  66  93 CALM      30.08R
$$

ARZ009-017-025-026-028-301100-
NORTHEAST ARKANSAS

CITY           SKY/WX    TMP DP  RH WIND       PRES   REMARKS
CORNING        FAIR      61  61 100 CALM      30.10R
JONESBORO      CLEAR     61  58  90 CALM      30.09S
NEWPORT        PTCLDY    66  62  87 CALM      30.11R
WALNUT RIDGE   CLEAR     64  57  77 CALM      30.08S
BLYTHEVILLE    CLEAR     60  58  92 CALM      30.10R
$$

ARZ022-023-033-042-044-301100-
CENTRAL ARKANSAS

CITY           SKY/WX    TMP DP  RH WIND       PRES   REMARKS
LITTLE ROCK    MOCLDY    69  60  73 CALM      30.10R
N LITTLE ROCK    N/A     68  62  83 S3        30.10R
JACKSONVILLE   PTCLDY    64  62  93 CALM      30.09S
SEARCY         CLEAR     63  62  96 CALM      30.11S
HOT SPRINGS    MOCLDY    68  63  84 CALM      30.11R
RUSSELLVILLE   MOCLDY    69  63  81 CALM      30.09R
CLINTON        FAIR      63  63 100 CALM      30.11S
$$

ARZ036-301100-
EAST ARKANSAS

CITY           SKY/WX    TMP DP  RH WIND       PRES   REMARKS
WEST MEMPHIS   PTCLDY    60  60 100 CALM      30.08S
$$

ARZ050-053-066-070-073-301100-
SOUTHWEST ARKANSAS

CITY           SKY/WX    TMP DP  RH WIND       PRES   REMARKS
ARKADELPHIA    FAIR      67  67 100 CALM      30.11R
CAMDEN         PTCLDY    64  59  82 CALM      30.09R
TEXARKANA      MOCLDY    71  63  75 SE6       30.08R
EL DORADO      PTCLDY    65  61  87 CALM      30.09R
DE QUEEN       CLOUDY    70  67  90 E3        30.06S
$$

ARZ056-057-069-301100-
SOUTHEAST ARKANSAS

CITY           SKY/WX    TMP DP  RH WIND       PRES   REMARKS
PINE BLUFF     PTCLDY    65  62  90 CALM      30.10R
STUTTGART      CLEAR     68  59  73 CALM      30.10S
MONTICELLO     PTCLDY    64  60  87 CALM      30.09R

$$




USA.gov is the U.S. government's official web portal to all federal, state and local government web resources and services.